Overview Statistics Trail Chart Weather Telemetry Raw packets
 

This is the latest recevied weather packets stored in our database for station/object KC1TEM-13. If no packets are shown the sender has not sent any weather packets the latest 10 day(s).

<< 1 2 3 4 5 6 >>
Time Temp. Humidity Pressure Rain* Wind** Luminosity Snow
1788615349 21.67° C 74% 1010.9 hPa 0 mm - 102 W/m² -
1788615048 21.11° C 75% 1010.7 hPa 0 mm - 193 W/m² -
1788614748 20.56° C 79% 1010.6 hPa 0 mm - 517 W/m² -
1788614443 20° C 81% 1010.7 hPa 0 mm - 128 W/m² -
1788614138 20° C 83% 1010.6 hPa 0 mm - 93 W/m² -
1788613834 19.44° C 84% 1010.6 hPa 0 mm - 145 W/m² -
1788613533 19.44° C 83% 1010.6 hPa 0 mm - 178 W/m² -
1788613228 18.89° C 85% 1010.6 hPa 0 mm - 169 W/m² -
1788612927 18.89° C 86% 1010.7 hPa 0 mm - 157 W/m² -
1788612623 18.33° C 88% 1010.6 hPa 0 mm - 146 W/m² -
1788612320 18.33° C 88% 1010.5 hPa 0 mm - 130 W/m² -
1788612015 18.33° C 87% 1010.6 hPa 0 mm - 111 W/m² -
1788611711 18.33° C 89% 1010.3 hPa 0 mm - 118 W/m² -
1788611408 17.78° C 89% 1010.4 hPa 0 mm - 108 W/m² -
1788611107 17.78° C 89% 1010.4 hPa 0 mm - 129 W/m² -
1788610823 17.78° C 92% 1010.3 hPa 0 mm - 115 W/m² -
1788610497 17.22° C 92% 1010.4 hPa 0 mm - 90 W/m² -
1788610196 17.22° C 94% 1010.6 hPa 0 mm - 68 W/m² -
1788609891 16.67° C 95% 1010.4 hPa 0 mm - 74 W/m² -
1788609586 16.67° C 95% 1010.4 hPa 0 mm - 69 W/m² -
1788609285 16.67° C 95% 1010.3 hPa 0 mm - 75 W/m² -
1788608980 16.67° C 95% 1010.1 hPa 0 mm - 48 W/m² -
1788608680 16.67° C 95% 1009.9 hPa 0 mm - 47 W/m² -
1788608379 16.11° C 96% 1010 hPa 0 mm - 50 W/m² -
1788608074 16.11° C 96% 1010 hPa 0 mm - 30 W/m² -

* Rain latest hour (hover to see other rain measurements)
** Current wind speed in m/s (hover to see current wind gust speed)